Regional Weather Roundup
Issued by NWS Burlington, VT

Current Version | Previous Version | Graphics & Text | Print | Product List | Glossary Off
Versions: 1 2 3 4 5 6 7 8 9 10 11 12 13 14 15 16 17 18 19 20 21 22 23 24 25 26 27 28 29 30 31 32 33 34 35 36 37 38 39 40 41 42 43 44 45 46 47 48 49 50

000
ASUS41 KBTV 021510
RWRBTV
VERMONT REGIONAL WEATHER ROUNDUP
NATIONAL WEATHER SERVICE BURLINGTON VT
1100 AM EDT WED SEP 02 2015

NOTE: "FAIR" INDICATES FEW OR NO CLOUDS BELOW 12,000 FEET WITH NO
SIGNIFICANT WEATHER AND/OR OBSTRUCTIONS TO VISIBILITY.

* THESE REPORTS ARE NOT UNDER NWS QUALITY CONTROL AND/OR DO NOT
  REPORT WEATHER SUCH AS PRECIPITATION AND FOG.

VTZ001>019-021600-
_____VERMONT_____


CITY           SKY/WX    TMP DP  RH WIND       PRES   REMARKS
BURLINGTON     MOSUNNY   78  64  61 S8        29.98F
MONTPELIER     SUNNY     72  62  71 CALM      30.05F
MORRISVILLE    MOSUNNY   75  63  66 E3        30.01F
ST. JOHNSBURY*   N/A     70  61  73 MISG      29.99F
LYNDONVILLE*   FAIR      70  61  74 CALM      30.04F
MIDDLEBURY*    FAIR      76  64  64 S5        30.00S
RUTLAND*       SUNNY     73  63  68 W3        30.03S
SPRINGFIELD    SUNNY     73  61  65 VRB3      30.00F
HIGHGATE*      FAIR      76  66  71 SW7       29.98S
NEWPORT*       FAIR      74  65  72 S6        30.00F
BENNINGTON     PTSUNNY   75  65  70 VRB5      30.03F
SUTTON*          N/A     73 N/A N/A MISG        N/A

_____LAKE CHAMPLAIN_____


CITY           SKY/WX    TMP DP  RH WIND       PRES   REMARKS

$$

NYZ007-026>031-035-052-083-021600-
_____NORTHERN NEW YORK_____


CITY           SKY/WX    TMP DP  RH WIND       PRES   REMARKS
PLATTSBURGH    SUNNY     75  68  78 E9        29.97F
SARANAC LAKE   PTSUNNY   72  65  78 SW6       30.03F
MASSENA        CLOUDY    71  67  87 SW8       30.00S FOG
OGDENSBURG*    CLOUDY    72  70  94 CALM      30.00F FOG
POTSDAM*       CLOUDY    72  72 100 W6        30.01S FOG
WATERTOWN      CLOUDY    73  69  87 S7        30.01F FOG
FT DRUM        CLOUDY    72  68  88 SW13      30.01F
ALBANY         MOSUNNY   78  66  66 NW3       30.02S
GLENS FALLS    MOSUNNY   72  64  76 S5        30.01F

$$
NHZ002-005-011-021600-
_____NEW HAMPSHIRE_____


CITY           SKY/WX    TMP DP  RH WIND       PRES   REMARKS
LEBANON        SUNNY     70  63  78 CALM      29.99F
KEENE          SUNNY     72  61  68 SW3       30.01F
PLYMOUTH       FAIR      77  65  66 NW8       29.96F
WHITEFIELD     SUNNY     76  62  62 CALM      30.02S

$$

_____REGIONAL QUEBEC LOCATIONS_____


CITY           SKY/WX    TMP DP  RH WIND       PRES   REMARKS
MONTREAL       CLOUDY    70  66  88 W12       29.97S FOG
QUEBEC CITY    CLOUDY    68  66  94 SW10      29.93S FOG
SHERBROOKE     PTSUNNY   73  66  78 SW10      29.98S

_____REGIONAL ONTARIO LOCATIONS_____


CITY           SKY/WX    TMP DP  RH WIND       PRES   REMARKS
OTTAWA         CLOUDY    70  66  88 W6        30.00S

______KEY______
VSB  - VISIBILITY IN MILES
WCI  - WIND CHILL INDEX
HX   - HEAT INDEX
$$
NNNN


USA.gov is the U.S. government's official web portal to all federal, state and local government web resources and services.